Regional Weather Roundup
Issued by NWS

Home | Current Version | Previous Version | Graphics & Text | Print | Product List | Glossary On
Versions: 1 2 3 4 5 6 7 8 9 10 11 12 13 14 15 16 17 18 19 20 21 22 23 24 25 26 27 28 29 30 31 32 33 34 35 36 37 38 39 40 41 42 43 44 45 46 47 48 49 50
000
ASUS43 KLOT 301002
RWRIL

ILLINOIS REGIONAL WEATHER ROUNDUP
NATIONAL WEATHER SERVICE CHICAGO/ROMEOVILLE IL
500 AM CDT MON MAR 30 2015

NOTE: "FAIR" INDICATES FEW OR NO CLOUDS BELOW 12,000 FEET WITH NO
SIGNIFICANT WEATHER AND/OR OBSTRUCTIONS TO VISIBILITY.

* THESE STATIONS ARE NOT UNDER NWS QUALITY CONTROL. THEY ALSO MAY NOT
  REPORT WEATHER SUCH AS PRECIPITATION OR FOG.

ILZ001-002-007-009-015-016-024-301100-
NORTHWEST ILLINOIS

CITY           SKY/WX    TMP DP  RH WIND       PRES   REMARKS
MOLINE         CLEAR     35  27  72 SW3       30.05R
STERLING*      CLEAR     30  27  86 NW8       30.03R WCI  23
$$

ILZ003-004-008-010-011-017-018-301100-
NORTH CENTRAL ILLINOIS

CITY           SKY/WX    TMP DP  RH WIND       PRES   REMARKS
ROCKFORD       CLEAR     36  27  69 W7        30.01R WCI  30
FREEPORT*      CLEAR     35  28  75 SW6       30.02R WCI  30
$$

ILZ005-006-012>014-019>023-301100-
NORTHEAST ILLINOIS

CITY           SKY/WX    TMP DP  RH WIND       PRES   REMARKS
CHICAGO-OHARE  CLEAR     36  28  73 W8        29.98R WCI  30
CHICAGO-MIDWAY CLEAR     38  29  70 W7        29.99R WCI  33
AURORA         CLEAR     32  26  78 CALM      30.01R
WAUKEGAN       CLEAR     35  29  78 SW3       29.96R
DUPAGE AIRPORT CLEAR     37  28  70 W14       29.99R WCI  28
WHEELING       CLEAR     37  28  70 W6        29.99R WCI  32
NORTHERLY ISL    N/A     40  30  68 W9          N/A
$$

LMZ740>746-301100-
SOUTHERN LAKE MICHIGAN

STATION/POSITION SKY/WX   TEMP    WIND        PRES    VSBY  WAVE
                          AIR SEA DIR/SP/G                  HT/PER
                          (F)     (DEG/KT/KT) (MB)    (MI)  (FT/S)
HARRISON CRIB              41     280/ 14/ 17   N/A
BURNHAM HARBOR             40     270/  8/ 11   N/A
CALUMET HARBOR             38     230/  4/  6 1013.7R
BURNS HARBOR               40     260/ 11/ 12 1015.2S
MICHIGAN CITY              38     220/ 13/ 14   N/A
$$

ILZ025>027-034>036-040-047-049-050-058-095>099-301100-
WEST-CENTRAL ILLINOIS

CITY           SKY/WX    TMP DP  RH WIND       PRES   REMARKS
QUINCY         CLEAR     37  30  75 SW7       30.12R WCI  32
$$

ILZ028>032-037-038-041>044-048-051>054-059>061-301100-
CENTRAL ILLINOIS

CITY           SKY/WX    TMP DP  RH WIND       PRES   REMARKS
DECATUR        CLEAR     42  30  62 NW8       30.08R
PEORIA         CLEAR     40  28  62 W3        30.07R
LINCOLN*       CLEAR     42  30  62 W3        30.08S
SPRINGFIELD    CLEAR     32  26  78 W8        30.10R WCI  25
TAYLORVILLE    NOT AVBL
$$

ILZ033-039-045-046-055>057-062-063-301100-
EAST-CENTRAL ILLINOIS

CITY           SKY/WX    TMP DP  RH WIND       PRES   REMARKS
CHAMPAIGN      CLEAR     33  29  85 W9        30.05R WCI  25
DANVILLE*      FAIR      37  31  80 W10       29.99S WCI  29
MATTOON        CLEAR     35  30  82 W10       30.05R WCI  27
$$

ILZ079-100>102-301100-
SOUTHWEST ILLINOIS

CITY           SKY/WX    TMP DP  RH WIND       PRES   REMARKS
CAHOKIA*       FAIR      45  37  73 W6        30.13R
SPARTA*        CLEAR     43  38  82 NW5       30.13R
$$

ILZ064>066-069>071-074>076-080>082-084>086-088>090-092>094-301100-
SOUTH-CENTRAL ILLINOIS

CITY           SKY/WX    TMP DP  RH WIND       PRES   REMARKS
CARBONDALE     CLEAR     46  38  73 NW9       30.11R
MT. VERNON     CLEAR     45  34  65 NW3       30.10R
SALEM*         FAIR      44  37  73 NW8       30.10R
$$

ILZ067-068-072-073-078-083-087-091-301100-
SOUTHEAST ILLINOIS

CITY           SKY/WX    TMP DP  RH WIND       PRES   REMARKS
LAWRENCEVILLE  CLEAR     39  35  86 NW7       30.05R WCI  34
ROBINSON*      CLEAR     41  35  80 NW10      30.06R
$$

ABBREVIATIONS USED IN REMARKS
   TC - TEMPERATURE IN CELSIUS
  WCI - WIND CHILL INDEX
   HX - HEAT INDEX
  VSB - VISIBILITY
$$




USA.gov is the U.S. government's official web portal to all federal, state and local government web resources and services.